User: anonymous
Location: Caltech
(34.1382°N, 118.1253°W)
Time: 04:41:20
(UTC-07:00)
Language:

Cosmos 2251 Rocket - Orbit

View from above orbital plane
View from above orbital plane
View from above satellite
View from above satellite

Ground track
Ground track

The orbit data is extracted from the following two-line orbital elements,

1 22676U 93036B   14260.81557982  .00000231  00000-0  92682-4 0  3162
2 22676 074.0439 216.6120 0017831 131.3721 228.8968 14.33643830111537
Epoch (UTC): 17 September 2014 19:34:26
Eccentricity: 0.0017831
inclination: 74.0439°
perigee height: 767 km
apogee height: 792 km
right ascension of ascending node: 216.6120°
argument of perigee: 131.3721°
revolutions per day: 14.33643830
mean anomaly at epoch: 228.8968°
orbit number at epoch: 11153

The dashed part of the orbit path shows where the satellite is in the earth's shadow,  

DLR